TimeCST,TemperatureF,Dew PointF,Humidity,Sea Level PressureIn,VisibilityMPH,Wind Direction,Wind SpeedMPH,Gust SpeedMPH,PrecipitationIn,Events,Conditions,WindDirDegrees,DateUTC
12:16 AM,1.4,-2.2,85,30.30,10.0,WSW,10.4,-,N/A,,Overcast,250,2014-02-04 06:16:00
12:37 AM,-0.4,-5.8,78,30.30,10.0,West,9.2,-,N/A,,Overcast,270,2014-02-04 06:37:00
12:57 AM,-2.2,-7.6,78,30.31,10.0,WSW,8.1,-,N/A,,Overcast,250,2014-02-04 06:57:00
1:16 AM,-2.2,-7.6,78,30.32,10.0,WSW,8.1,-,N/A,,Overcast,240,2014-02-04 07:16:00
1:37 AM,-2.2,-7.6,78,30.33,4.0,WSW,8.1,-,N/A,Snow,Light Snow,250,2014-02-04 07:37:00
1:57 AM,-4.0,-7.6,85,30.33,10.0,WSW,8.1,-,N/A,,Overcast,250,2014-02-04 07:57:00
2:16 AM,-5.8,-9.4,84,30.34,10.0,WSW,5.8,-,N/A,,Overcast,250,2014-02-04 08:16:00
2:37 AM,-5.8,-9.4,84,30.35,4.0,SW,5.8,-,N/A,Snow,Light Snow,230,2014-02-04 08:37:00
2:57 AM,-7.6,-11.2,84,30.35,10.0,SW,4.6,-,N/A,,Scattered Clouds,230,2014-02-04 08:57:00
3:16 AM,-7.6,-11.2,84,30.36,10.0,SW,5.8,-,N/A,,Clear,220,2014-02-04 09:16:00
3:37 AM,-7.6,-11.2,84,30.37,10.0,SW,6.9,-,N/A,,Clear,230,2014-02-04 09:37:00
3:57 AM,-9.4,-13.0,84,30.37,10.0,SW,6.9,-,N/A,,Scattered Clouds,230,2014-02-04 09:57:00
4:16 AM,-9.4,-13.0,84,30.38,10.0,SW,9.2,-,N/A,,Mostly Cloudy,230,2014-02-04 10:16:00
4:37 AM,-9.4,-13.0,84,30.39,10.0,SW,5.8,-,N/A,,Overcast,220,2014-02-04 10:37:00
4:57 AM,-9.4,-13.0,84,30.39,10.0,WSW,6.9,-,N/A,,Overcast,240,2014-02-04 10:57:00
5:16 AM,-7.6,-11.2,84,30.39,10.0,West,6.9,-,N/A,,Overcast,260,2014-02-04 11:16:00
5:37 AM,-9.4,-14.8,77,30.39,10.0,WSW,5.8,-,N/A,,Mostly Cloudy,250,2014-02-04 11:37:00
5:57 AM,-11.2,-16.6,77,30.39,10.0,SW,5.8,-,N/A,,Scattered Clouds,230,2014-02-04 11:57:00
6:16 AM,-13.0,-16.6,84,30.40,10.0,WSW,5.8,-,N/A,,Clear,240,2014-02-04 12:16:00
6:37 AM,-13.0,-16.6,84,30.41,10.0,WSW,6.9,-,N/A,,Scattered Clouds,240,2014-02-04 12:37:00
6:57 AM,-13.0,-18.4,77,30.41,10.0,WSW,6.9,-,N/A,,Clear,240,2014-02-04 12:57:00
7:16 AM,-14.8,-18.4,84,30.42,10.0,WSW,5.8,-,N/A,,Clear,250,2014-02-04 13:16:00
7:37 AM,-16.6,-20.2,84,30.43,10.0,WSW,6.9,-,N/A,,Clear,240,2014-02-04 13:37:00
7:57 AM,-14.8,-18.4,84,30.44,10.0,WSW,4.6,-,N/A,,Mostly Cloudy,240,2014-02-04 13:57:00
8:16 AM,-11.2,-16.6,77,30.44,10.0,WSW,5.8,-,N/A,,Overcast,240,2014-02-04 14:16:00
8:37 AM,-11.2,-16.6,77,30.45,10.0,WSW,4.6,-,N/A,,Overcast,250,2014-02-04 14:37:00
8:57 AM,-9.4,-14.8,77,30.45,10.0,WSW,5.8,-,N/A,,Overcast,240,2014-02-04 14:57:00
9:16 AM,-7.6,-13.0,77,30.46,10.0,WSW,5.8,-,N/A,,Overcast,250,2014-02-04 15:16:00
9:37 AM,-7.6,-11.2,84,30.47,10.0,WSW,5.8,-,N/A,,Overcast,250,2014-02-04 15:37:00
9:57 AM,-7.6,-11.2,84,30.47,10.0,SW,4.6,-,N/A,,Overcast,230,2014-02-04 15:57:00
10:16 AM,-5.8,-11.2,77,30.47,10.0,SW,4.6,-,N/A,,Overcast,220,2014-02-04 16:16:00
10:37 AM,-4.0,-9.4,78,30.48,10.0,WSW,3.5,-,N/A,,Overcast,240,2014-02-04 16:37:00
10:57 AM,-2.2,-9.4,71,30.48,10.0,SW,3.5,-,N/A,,Overcast,230,2014-02-04 16:57:00
11:17 AM,-0.4,-9.4,66,30.48,10.0,WSW,4.6,-,N/A,,Overcast,250,2014-02-04 17:17:00
11:37 AM,-0.4,-9.4,66,30.48,10.0,WSW,4.6,-,N/A,,Overcast,240,2014-02-04 17:37:00
11:57 AM,-0.4,-7.6,72,30.48,10.0,WNW,6.9,-,N/A,,Overcast,290,2014-02-04 17:57:00
12:17 PM,1.4,-9.4,61,30.48,10.0,WNW,9.2,-,N/A,,Overcast,290,2014-02-04 18:17:00
12:37 PM,1.4,-9.4,61,30.48,10.0,NW,8.1,-,N/A,,Overcast,320,2014-02-04 18:37:00
12:57 PM,1.4,-9.4,61,30.48,10.0,NW,5.8,-,N/A,,Overcast,320,2014-02-04 18:57:00
1:17 PM,1.4,-11.2,56,30.47,10.0,NW,6.9,-,N/A,,Overcast,320,2014-02-04 19:17:00
1:37 PM,1.4,-11.2,56,30.47,10.0,NW,6.9,-,N/A,,Overcast,320,2014-02-04 19:37:00
1:57 PM,1.4,-11.2,56,30.46,10.0,WNW,8.1,-,N/A,,Overcast,290,2014-02-04 19:57:00
2:17 PM,1.4,-9.4,61,30.46,10.0,NW,5.8,-,N/A,,Overcast,320,2014-02-04 20:17:00
2:37 PM,1.4,-11.2,56,30.46,10.0,NW,9.2,-,N/A,,Overcast,310,2014-02-04 20:37:00
2:56 PM,1.4,-9.4,61,30.46,10.0,NW,6.9,-,N/A,,Overcast,320,2014-02-04 20:56:00
3:17 PM,1.4,-11.2,56,30.46,10.0,NW,8.1,-,N/A,,Overcast,310,2014-02-04 21:17:00
3:37 PM,1.4,-9.4,61,30.47,10.0,WNW,8.1,-,N/A,,Overcast,300,2014-02-04 21:37:00
3:56 PM,1.4,-9.4,61,30.46,10.0,NW,5.8,-,N/A,,Overcast,320,2014-02-04 21:56:00
4:17 PM,1.4,-9.4,61,30.47,10.0,WNW,6.9,-,N/A,,Overcast,290,2014-02-04 22:17:00
4:37 PM,1.4,-9.4,61,30.48,10.0,WNW,8.1,-,N/A,,Overcast,290,2014-02-04 22:37:00
4:56 PM,-0.4,-11.2,60,30.49,10.0,WNW,5.8,-,N/A,,Overcast,290,2014-02-04 22:56:00
5:17 PM,-0.4,-11.2,60,30.50,10.0,WNW,4.6,-,N/A,,Overcast,290,2014-02-04 23:17:00
5:37 PM,-0.4,-11.2,60,30.50,10.0,WNW,3.5,-,N/A,,Overcast,290,2014-02-04 23:37:00
5:56 PM,-2.2,-11.2,66,30.50,10.0,Calm,Calm,-,N/A,,Overcast,0,2014-02-04 23:56:00
6:17 PM,-2.2,-11.2,66,30.50,10.0,Calm,Calm,-,N/A,,Scattered Clouds,0,2014-02-05 00:17:00
6:37 PM,-2.2,-13.0,60,30.50,10.0,Calm,Calm,-,N/A,,Clear,0,2014-02-05 00:37:00
6:56 PM,-4.0,-14.8,60,30.50,10.0,NW,3.5,-,N/A,,Clear,320,2014-02-05 00:56:00
7:17 PM,-7.6,-14.8,71,30.50,10.0,WNW,3.5,-,N/A,,Clear,290,2014-02-05 01:17:00
7:37 PM,-7.6,-14.8,71,30.49,10.0,West,3.5,-,N/A,,Clear,280,2014-02-05 01:37:00
7:56 PM,-7.6,-14.8,71,30.48,10.0,NW,3.5,-,N/A,,Clear,310,2014-02-05 01:56:00
8:17 PM,-7.6,-14.8,71,30.48,10.0,NW,4.6,-,N/A,,Clear,310,2014-02-05 02:17:00
8:37 PM,-7.6,-14.8,71,30.48,10.0,NW,5.8,-,N/A,,Clear,310,2014-02-05 02:37:00
8:56 PM,-9.4,-16.6,71,30.48,10.0,WNW,4.6,-,N/A,,Clear,300,2014-02-05 02:56:00
9:17 PM,-11.2,-18.4,70,30.48,10.0,Calm,Calm,-,N/A,,Clear,0,2014-02-05 03:17:00
9:37 PM,-9.4,-16.6,71,30.48,10.0,West,3.5,-,N/A,,Clear,280,2014-02-05 03:37:00
9:56 PM,-11.2,-16.6,77,30.48,10.0,Calm,Calm,-,N/A,,Clear,0,2014-02-05 03:56:00
10:17 PM,-11.2,-18.4,70,30.49,10.0,West,3.5,-,N/A,,Clear,260,2014-02-05 04:17:00
10:37 PM,-14.8,-18.4,84,30.49,10.0,WSW,4.6,-,N/A,,Clear,250,2014-02-05 04:37:00
10:56 PM,-14.8,-18.4,84,30.50,10.0,WSW,4.6,-,N/A,,Clear,240,2014-02-05 04:56:00
11:17 PM,-13.0,-18.4,77,30.50,10.0,WSW,4.6,-,N/A,,Clear,250,2014-02-05 05:17:00
11:37 PM,-14.8,-18.4,84,30.50,10.0,WSW,4.6,-,N/A,,Clear,240,2014-02-05 05:37:00
11:56 PM,-14.8,-18.4,84,30.50,10.0,WSW,4.6,-,N/A,,Clear,250,2014-02-05 05:56:00